FENGYUN 1C DEB, 30035

Orbit data source: Space-Track

FENGYUN 1C DEB, 30035 is space debris in SSO originally from a launch on Mon, 10 May 1999 UTC launched from the Taiyaun Space Center, China (TSC). Fengyun 1C debris stems from the Chinese weather satellite Fengyun-1C, which was intentionally destroyed by a Chinese anti-satellite missile in 2007. This event dramatically increased the amount of space debris, with thousands of trackable fragments posing hazards to satellites and human spaceflight. The Fengyun 1C debris cloud has become a focal point in discussions about space sustainability and the need for international regulations to prevent the creation of new debris.

Loading next visibility...
Identifier
30035, 1999-025NL
Orbit
SSO
Country
Flag of CNCN / PRC
Related business
Manufacturer
Unknown
Mission
Spacecraft
Bus & Motor
Unknown
Mass
Unknown
Launch date (UTC)
1999-05-10 (27 years ago)
Launch vehicle
Unknown
Launch site
Taiyaun Space Center, China (TSC)
Object type
Payload
Rocket body
Debris
Shape & HBR
Unknown shape, 0.1 m
Radar Cross Section
Small (<0.1 m²)

Expand to show TLE details & history
Last TLE update: 15 hours ago

TLE from 15 hours ago
0 FENGYUN 1C DEB
1 30035U 99025NL  26072.78477411  .00000148  00000-0  62961-4 0  9993
2 30035  99.2731 359.6110 0114995 156.1628 223.1784 14.37031889  4327
Epoch: 2026-03-13T18:50Z
TLE epoch observation values (Epoch: 2026-03-13T18:50:04.483Z)
Latitude
18.19306°
Longitude
-97.38272°
Altitude
831.07 km
Speed
7.407 km/s
True Right ascension
23h 46m 12s
True Declination
18° 05' 32"
Sunlit
Object was in daylight at epoch
Visualization orbit readout
Latitude
Unknown
Longitude
Unknown
Altitude
Unknown
Speed
Unknown
Apparent Right ascension
Unknown
Apparent Declination
Unknown
Sunlit
N/A
Visualization observer readout
Local Sidereal Time
14:46:12
Azimuth
Unknown
Elevation
Unknown
Doppler factor
Unknown
Orbital elements
Apogee altitude
847.633 km
Perigee altitude
683.337 km
Semi-major axis
7,143.622 km
Eccentricity
0.0115
Inclination
99.2731°
RAAN
359.611°
Arg. of periapsis
156.1628°
True anomaly
222.2861°
Mean anomaly
223.1784°
Eccentric anomaly
222.73131°
Mean motion
3.59472 °/min
Orbital period
100.15 mins
BSTAR
0.000062961
Loading maneuver chart data...
Computing Atmospheric mass density...

Documentation

Showing up to 5 results
|